User: anonymous   Login
Location: Theydon Bois
(51.6750°N, 0.1050°E)
Time: 20:39:55
(UTC+00:00)
Language:

Cosmos 923 Rocket - Orbit

View from above orbital plane
View from above orbital plane
View from above satellite
View from above satellite

Ground track
Ground track

The orbit data is extracted from the following two-line orbital elements,

1 10121U 77059B   17351.89078896 -.00000059 +00000-0 -11335-4 0  9998
2 10121 074.0450 154.7144 0017872 101.9639 258.3518 14.35842058115994
Epoch (UTC): 17 December 2017 21:22:44
Eccentricity: 0.0017872
inclination: 74.0450°
perigee height: 759 km
apogee height: 785 km
right ascension of ascending node: 154.7144°
argument of perigee: 101.9639°
revolutions per day: 14.35842058
mean anomaly at epoch: 258.3518°
orbit number at epoch: 11599

The dashed part of the orbit path shows where the satellite is in the earth's shadow,  

DLR